Вернуться в каталог

THORAD AGENA D DEB

АктивенSSO
NORAD 5129·DEBRIS·🇺🇸 United States

Запущен Apr 8, 1970 с Vandenberg Space Force Base

Loading…

Ближайшие Пролёты (ближайшие 24 часа)

TLE

СвежийSource: Space-Track

Эпоха: Sep 14, 2026, 04:23 UTC

1 05129U 70025JN  26257.18303053  .00001408  00000-0  17988-2 0  9994
2 05129  99.3114 342.7250 0191942 209.6995 179.6329 13.57350431745718

Отслеживайте THORAD AGENA D DEB в реальном времени с AllMySat

Download on the App Store